Location: Newark
(48.9000°N, 0.7000°E)
Time: 20:26:16
(UTC+00:00)

ISS - Pass Details

Date: 08 October 2020
Orbit: 418 x 420 km, 51.6° (Epoch: 20 October)

Event Time Altitude Azimuth Distance (km) Brightness Sun altitude
Rises 18:21:17 0° 281° (WNW) 2,367 2.1 -10.8°
Reaches altitude 10° 18:24:22 10° 250° (WSW) 1,499 0.2 -11.3°
Maximum altitude 18:25:48 12° 225° (SW) 1,365 -0.6 -11.5°
Drops below altitude 10° 18:27:14 10° 200° (SSW) 1,494 -0.8 -11.7°
Sets 18:30:19 0° 168° (SSE) 2,353 -0.1 -12.2°
